Group_ship,Cruise,JD_GMT,Date_DDMMYYYY,TIME_HH:MM:SS,Lat_dec_degree,Long_dec_degree,xCO2eq_ppm,xCO2a_ppm,Pres_Equi_hPa,Pres_sealevel_hPa,EqTemp_C,SST(TSG)_C,Sal(TSG)_Permil,Water_flow_l/min,Gasflow_IR_ml/min,Temp_IR_C,Pres_IR_hPa,Ship_heading_true_degree,Ship_speed_knot,Wind_dir_rel_degree,Wind_speed_rel_m/s,fCO2W@SST_uatm,Qcflag_water,fCO2a_uatm,Qcflag_air,dfCO2_uatm,Fluoro_ug/l,Wind_speed_true_m/s,Wind_dir_true_degree,Air_temp_C,Oxygen
AOML_Explorer,Ex0710E,64.015,05032007,0:21:40,25.956,-79.675,369.85,-9.00,1018.06,1014.40,25.89,26.15,36.144,1.947,103.780,32.077,1018.060,62.900,22.900,330.000,19.044,362.32,2,-9.00,9,-9.00,0.04,9.81,6.31,22.42,243.50
AOML_Explorer,Ex0710E,64.017,05032007,0:24:13,25.964,-79.659,370.17,-9.00,1017.77,1014.70,25.90,26.17,36.149,1.940,103.773,32.083,1017.772,62.000,22.900,326.000,20.588,362.62,2,-9.00,9,-9.00,0.04,11.98,2.04,22.5,243.09
AOML_Explorer,Ex0710E,64.019,05032007,0:26:46,25.971,-79.643,370.64,-9.00,1018.04,1014.70,25.92,26.14,36.158,1.943,103.609,32.086,1018.037,62.100,22.800,335.000,21.617,362.38,2,-9.00,9,-9.00,0.05,11.43,19.26,22.43,243.11
AOML_Explorer,Ex0710E,64.020,05032007,0:29:19,25.979,-79.628,370.95,-9.00,1018.06,1015.50,25.92,26.04,36.171,1.913,103.748,32.090,1018.061,61.900,22.800,335.000,19.559,361.28,2,-9.00,9,-9.00,0.04,9.63,14.35,22.41,242.21
AOML_Explorer,Ex0710E,64.022,05032007,0:31:52,25.987,-79.612,370.86,-9.00,1017.93,1014.50,25.87,26.01,36.185,1.946,103.909,32.092,1017.927,62.400,22.800,335.000,22.132,361.39,2,-9.00,9,-9.00,0.04,12.01,19.83,22.33,241.24
AOML_Explorer,Ex0710E,64.024,05032007,0:34:25,25.994,-79.596,369.89,-9.00,1017.92,1014.70,25.80,25.90,36.226,1.945,103.676,32.098,1017.921,61.600,22.800,332.000,21.103,359.98,2,-9.00,9,-9.00,0.05,11.47,12.49,22.29,239.65
AOML_Explorer,Ex0710E,64.026,05032007,0:36:58,26.002,-79.580,370.30,-9.00,1017.96,1014.70,25.77,25.84,36.214,1.933,103.932,32.104,1017.962,61.600,22.900,333.000,21.103,360.03,2,-9.00,9,-9.00,0.04,11.30,13.85,22.23,237.44
AOML_Explorer,Ex0710E,64.027,05032007,0:39:31,26.009,-79.564,370.50,-9.00,1018.28,1015.20,25.67,25.87,36.219,1.955,104.044,32.111,1018.280,62.000,22.900,336.000,21.103,362.26,2,-9.00,9,-9.00,0.04,10.87,19.30,22.25,235.97
AOML_Explorer,Ex0710E,64.029,05032007,0:42:04,26.017,-79.548,369.93,-9.00,1018.04,1014.40,25.65,25.87,36.220,1.908,104.031,32.116,1018.044,62.400,22.800,330.000,19.044,362.03,2,-9.00,9,-9.00,0.04,10.13,3.33,22.24,233.73
AOML_Explorer,Ex0710E,64.031,05032007,0:44:37,26.025,-79.533,370.02,-9.00,1018.25,1015.80,25.66,25.85,36.211,1.938,103.623,32.124,1018.249,62.200,22.900,336.000,19.559,361.61,2,-9.00,9,-9.00,0.05,9.47,15.81,22.24,232.13
AOML_Explorer,Ex0710E,64.033,05032007,0:47:10,26.032,-79.517,369.88,-9.00,1018.46,1014.90,25.65,25.84,36.200,1.890,103.991,32.133,1018.457,62.500,22.800,332.000,18.529,361.59,2,-9.00,9,-9.00,0.05,9.37,4.94,22.16,229.75
AOML_Explorer,Ex0710E,64.035,05032007,0:49:43,26.040,-79.501,369.18,-9.00,1018.39,1015.10,25.64,25.86,36.187,1.934,103.761,32.142,1018.393,63.000,22.800,335.000,20.073,361.45,2,-9.00,9,-9.00,0.05,10.22,15.07,22.24,229.24
AOML_Explorer,Ex0710E,64.036,05032007,0:52:16,26.047,-79.485,368.47,-9.00,1018.41,1014.50,25.64,25.86,36.188,1.959,103.404,32.150,1018.407,63.000,22.700,329.000,20.588,360.80,2,-9.00,9,-9.00,0.05,11.69,6.51,22.3,229.31
AOML_Explorer,Ex0710E,64.038,05032007,0:54:49,26.054,-79.469,368.11,-9.00,1018.21,1015.70,25.65,25.84,36.203,1.922,104.067,32.156,1018.206,61.800,22.700,335.000,20.073,359.84,2,-9.00,9,-9.00,0.05,10.35,13.05,22.19,229.26
AOML_Explorer,Ex0710E,64.040,05032007,0:57:22,26.062,-79.453,367.91,-9.00,1018.41,1016.00,25.65,25.84,36.194,1.918,103.830,32.163,1018.414,62.300,22.600,336.000,18.529,359.78,2,-9.00,9,-9.00,0.05,8.86,11.24,22.24,229.18
AOML_Explorer,Ex0710E,64.042,05032007,0:59:55,26.069,-79.438,367.85,-9.00,1018.37,1015.10,25.63,25.83,36.189,1.921,104.163,32.165,1018.369,62.900,22.500,335.000,18.529,359.72,2,-9.00,9,-9.00,0.05,9.14,9.30,22.26,229.41
AOML_Explorer,Ex0710E,64.057,05032007,1:21:40,26.130,-79.306,367.91,-9.00,1018.60,1015.50,25.66,25.83,36.216,1.911,104.622,32.224,1018.601,64.000,21.900,331.000,19.559,359.39,2,-9.00,9,-9.00,0.05,11.25,4.59,21.9,229.86
AOML_Explorer,Ex0710E,64.058,05032007,1:24:13,26.137,-79.290,368.33,-9.00,1018.85,1015.60,25.63,25.87,36.202,1.951,104.609,32.224,1018.852,64.700,21.700,332.000,19.559,361.07,2,-9.00,9,-9.00,0.05,11.17,6.95,21.86,229.94
AOML_Explorer,Ex0710E,64.060,05032007,1:26:46,26.144,-79.275,368.20,-9.00,1018.71,1016.50,25.63,25.85,36.211,1.955,104.654,32.227,1018.713,64.200,21.700,340.000,20.073,360.53,2,-9.00,9,-9.00,0.05,10.43,20.90,21.91,229.89
AOML_Explorer,Ex0710E,64.062,05032007,1:29:19,26.150,-79.260,368.33,-9.00,1018.79,1015.30,25.66,25.91,36.194,1.927,104.583,32.224,1018.788,64.700,21.700,329.000,19.044,361.11,2,-9.00,9,-9.00,0.05,11.27,0.83,21.96,229.98
AOML_Explorer,Ex0710E,64.064,05032007,1:31:52,26.157,-79.244,368.33,-9.00,1018.91,1016.40,25.65,25.92,36.194,1.933,104.244,32.222,1018.915,64.900,21.700,338.000,19.044,361.31,2,-9.00,9,-9.00,0.05,9.84,14.89,21.87,230.12
AOML_Explorer,Ex0710E,64.066,05032007,1:34:25,26.164,-79.229,368.64,-9.00,1018.87,1016.20,25.69,25.89,36.201,1.918,103.602,32.221,1018.870,64.900,21.700,339.000,20.588,360.64,2,-9.00,9,-9.00,0.05,11.11,20.02,21.86,230.10
AOML_Explorer,Ex0710E,64.067,05032007,1:36:58,26.170,-79.213,368.92,-9.00,1019.05,1016.60,25.69,25.90,36.196,1.956,104.022,32.222,1019.046,67.100,21.600,339.000,20.073,361.19,2,-9.00,9,-9.00,0.05,10.57,22.56,21.92,230.08
AOML_Explorer,Ex0710E,64.069,05032007,1:39:31,26.175,-79.197,368.91,-9.00,1018.82,1016.10,25.68,25.87,36.203,1.900,104.343,32.222,1018.823,72.300,21.600,340.000,19.044,360.85,2,-9.00,9,-9.00,0.05,9.68,24.74,21.8,229.96
AOML_Explorer,Ex0710E,64.071,05032007,1:42:04,26.180,-79.181,368.80,-9.00,1018.83,1015.40,25.67,25.85,36.207,1.647,104.026,32.219,1018.826,72.500,21.600,333.000,19.559,360.47,2,-9.00,9,-9.00,0.05,11.31,13.91,21.9,229.99
AOML_Explorer,Ex0710E,64.073,05032007,1:44:37,26.184,-79.165,368.71,-9.00,1018.88,1015.90,25.65,25.85,36.207,1.705,104.550,32.220,1018.883,79.300,21.600,331.000,19.044,360.82,2,-9.00,9,-9.00,0.04,11.08,17.44,21.8,229.99
AOML_Explorer,Ex0710E,64.074,05032007,1:47:10,26.186,-79.148,368.58,-9.00,1019.18,1015.50,25.64,25.81,36.217,1.663,104.385,32.222,1019.182,87.700,21.700,323.000,17.500,360.44,2,-9.00,9,-9.00,0.05,11.35,9.70,21.81,230.01
AOML_Explorer,Ex0710E,64.076,05032007,1:49:43,26.185,-79.131,368.14,-9.00,1018.66,1014.90,25.62,25.78,36.230,1.682,104.469,32.224,1018.657,93.300,21.800,326.000,18.015,359.56,2,-9.00,9,-9.00,0.05,11.35,19.21,21.79,229.98
AOML_Explorer,Ex0710E,64.078,05032007,1:52:16,26.184,-79.114,368.19,-9.00,1018.93,1015.20,25.60,25.82,36.204,1.639,104.159,32.225,1018.934,93.400,21.700,331.000,18.529,360.66,2,-9.00,9,-9.00,0.04,10.88,27.77,21.73,229.91
AOML_Explorer,Ex0710E,64.080,05032007,1:54:49,26.184,-79.097,367.99,-9.00,1019.05,1015.10,25.58,25.84,36.202,1.643,104.241,32.225,1019.047,93.300,21.800,320.000,16.985,361.08,2,-9.00,9,-9.00,0.04,11.70,8.93,21.65,229.93
AOML_Explorer,Ex0710E,64.082,05032007,1:57:22,26.183,-79.080,367.22,-9.00,1018.90,1015.40,25.61,25.83,36.207,1.664,104.301,32.225,1018.904,93.500,21.800,327.000,17.500,359.66,2,-9.00,9,-9.00,0.04,10.75,19.09,21.7,230.06
AOML_Explorer,Ex0710E,64.083,05032007,1:59:55,26.182,-79.063,366.97,-9.00,1018.85,1015.10,25.63,25.84,36.202,1.621,104.621,32.224,1018.853,93.500,21.800,324.000,18.015,359.34,2,-9.00,9,-9.00,0.04,11.75,16.87,21.79,229.90
AOML_Explorer,Ex0710E,64.098,05032007,2:21:40,26.161,-78.916,366.54,-9.00,1019.04,1015.50,25.48,25.58,36.261,1.620,104.719,32.256,1019.037,103.400,22.800,321.000,15.441,357.38,2,-9.00,9,-9.00,0.05,10.42,11.56,21.77,229.00
AOML_Explorer,Ex0710E,64.100,05032007,2:24:13,26.157,-78.899,366.66,-9.00,1018.99,1015.50,25.40,25.55,36.264,1.625,104.436,32.249,1018.995,103.100,22.900,324.000,15.956,358.15,2,-9.00,9,-9.00,0.05,10.13,16.24,21.77,228.95
AOML_Explorer,Ex0710E,64.102,05032007,2:26:46,26.153,-78.882,366.53,-9.00,1019.13,1015.50,25.38,25.56,36.263,1.632,104.568,32.240,1019.131,104.100,23.000,320.000,14.926,358.57,2,-9.00,9,-9.00,0.04,10.38,8.22,21.71,228.92
AOML_Explorer,Ex0710E,64.104,05032007,2:29:19,26.150,-78.864,366.41,-9.00,1019.14,1015.50,25.35,25.55,36.278,1.618,104.180,32.234,1019.136,103.800,23.100,321.000,15.956,358.83,2,-9.00,9,-9.00,0.05,10.89,12.62,21.66,229.36
AOML_Explorer,Ex0710E,64.105,05032007,2:31:52,26.146,-78.847,366.34,-9.00,1019.02,1015.50,25.37,25.55,36.273,1.623,104.247,32.227,1019.024,103.900,23.200,321.000,16.470,358.32,2,-9.00,9,-9.00,0.05,11.20,14.59,21.79,229.38
AOML_Explorer,Ex0710E,64.107,05032007,2:34:25,26.142,-78.829,366.51,-9.00,1019.02,1015.30,25.36,25.50,36.278,1.632,104.172,32.221,1019.019,104.300,23.300,322.000,16.985,358.11,2,-9.00,9,-9.00,0.04,11.37,17.43,21.74,229.84
AOML_Explorer,Ex0710E,64.109,05032007,2:36:58,26.138,-78.811,366.49,-9.00,1019.01,1015.60,25.34,25.38,36.304,1.625,104.316,32.215,1019.009,104.000,23.300,323.000,14.926,356.42,2,-9.00,9,-9.00,0.06,9.80,9.85,21.77,229.53
AOML_Explorer,Ex0710E,64.111,05032007,2:39:31,26.134,-78.794,366.10,-9.00,1019.06,1015.60,25.28,25.33,36.300,1.624,104.690,32.214,1019.055,104.300,23.400,324.000,16.470,356.44,2,-9.00,9,-9.00,0.06,10.67,17.07,21.74,228.60
AOML_Explorer,Ex0710E,64.113,05032007,2:42:04,26.130,-78.776,365.44,-9.00,1018.98,1015.90,25.19,25.28,36.324,1.634,104.456,32.208,1018.979,103.900,23.500,326.000,15.441,356.34,2,-9.00,9,-9.00,0.06,9.59,14.05,21.79,228.51
AOML_Explorer,Ex0710E,64.114,05032007,2:44:37,26.126,-78.758,364.92,-9.00,1019.07,1015.90,25.15,25.11,36.345,1.644,104.467,32.203,1019.074,103.700,23.000,328.000,15.441,354.00,2,-9.00,9,-9.00,0.05,9.03,18.28,21.69,229.96
AOML_Explorer,Ex0710E,64.116,05032007,2:47:10,26.122,-78.741,364.62,-9.00,1019.05,1015.60,25.05,25.12,36.328,1.601,104.650,32.203,1019.047,104.200,22.800,323.000,15.956,355.37,2,-9.00,9,-9.00,0.05,10.44,15.93,21.73,230.28
AOML_Explorer,Ex0710E,64.118,05032007,2:49:43,26.118,-78.723,363.35,-9.00,1019.06,1015.40,24.96,25.10,36.329,1.618,104.138,32.198,1019.062,104.300,22.800,321.000,15.956,355.15,2,-9.00,9,-9.00,0.05,10.91,13.80,21.76,230.09
AOML_Explorer,Ex0710E,64.120,05032007,2:52:16,26.114,-78.706,362.48,-9.00,1018.98,1015.70,24.96,25.06,36.353,1.621,104.508,32.195,1018.982,104.700,22.800,321.000,15.441,353.72,2,-9.00,9,-9.00,0.05,10.68,11.66,21.72,230.34
AOML_Explorer,Ex0710E,64.121,05032007,2:54:49,26.110,-78.689,362.01,-9.00,1019.11,1015.40,24.95,24.95,36.402,1.613,104.415,32.197,1019.109,104.100,22.900,322.000,16.470,352.02,2,-9.00,9,-9.00,0.05,11.17,15.73,21.81,230.90
AOML_Explorer,Ex0710E,64.123,05032007,2:57:22,26.106,-78.672,361.84,-9.00,1019.11,1015.80,24.89,24.78,36.448,1.607,104.498,32.192,1019.107,104.200,22.900,320.000,14.926,350.27,2,-9.00,9,-9.00,0.06,10.45,8.28,21.73,230.78
AOML_Explorer,Ex0710E,64.125,05032007,2:59:55,26.102,-78.654,361.73,-9.00,1019.16,1015.90,24.75,24.77,36.447,1.632,104.551,32.189,1019.157,103.600,23.100,327.000,15.441,352.01,2,-9.00,9,-9.00,0.05,9.22,16.73,21.76,230.67
AOML_Explorer,Ex0710E,64.140,05032007,3:21:40,26.070,-78.501,360.16,-9.00,1019.09,1015.80,24.68,24.75,36.425,1.607,104.586,32.200,1019.088,101.400,24.200,326.000,15.956,351.24,2,-9.00,9,-9.00,0.05,9.57,13.31,21.9,230.95
AOML_Explorer,Ex0710E,64.142,05032007,3:24:13,26.066,-78.482,360.09,-9.00,1019.11,1015.90,24.66,24.70,36.442,1.599,104.791,32.192,1019.114,101.100,24.400,327.000,16.985,350.88,2,-9.00,9,-9.00,0.05,9.84,18.97,21.87,231.13
AOML_Explorer,Ex0710E,64.144,05032007,3:26:46,26.063,-78.464,359.64,-9.00,1019.15,1015.50,24.61,24.49,36.515,1.593,104.776,32.184,1019.145,100.400,23.800,321.000,16.470,348.17,2,-9.00,9,-9.00,0.05,10.76,11.58,21.91,231.69
AOML_Explorer,Ex0710E,64.145,05032007,3:29:19,26.060,-78.445,359.32,-9.00,1019.13,1015.50,24.57,24.38,36.513,1.635,104.764,32.178,1019.130,100.500,23.400,325.000,15.956,346.96,2,-9.00,9,-9.00,0.05,9.52,15.23,21.91,232.21
AOML_Explorer,Ex0710E,64.147,05032007,3:31:52,26.057,-78.427,357.33,-9.00,1018.92,1015.50,24.30,24.47,36.507,1.616,104.933,32.166,1018.918,99.400,23.300,324.000,16.985,350.03,2,-9.00,9,-9.00,0.05,10.22,18.50,21.96,231.61
AOML_Explorer,Ex0710E,64.149,05032007,3:34:25,26.054,-78.409,355.30,-9.00,1018.92,1015.50,24.32,24.48,36.496,1.608,104.536,32.160,1018.917,99.700,23.400,320.000,15.956,348.04,2,-9.00,9,-9.00,0.05,10.37,10.15,21.9,231.27
AOML_Explorer,Ex0710E,64.151,05032007,3:36:58,26.051,-78.391,355.74,-9.00,1019.20,1015.30,24.37,24.47,36.490,1.619,105.038,32.154,1019.204,99.700,23.300,323.000,16.985,347.68,2,-9.00,9,-9.00,0.05,10.53,17.41,21.88,231.42
AOML_Explorer,Ex0710E,64.152,05032007,3:39:31,26.049,-78.373,356.19,-9.00,1019.27,1015.70,24.36,24.48,36.482,1.598,104.866,32.150,1019.273,101.400,23.300,321.000,16.985,348.40,2,-9.00,9,-9.00,0.05,10.89,17.15,21.93,231.52
AOML_Explorer,Ex0710E,64.154,05032007,3:42:04,26.045,-78.355,355.99,-9.00,1019.03,1015.60,24.36,24.54,36.482,1.588,104.830,32.145,1019.032,103.600,23.100,322.000,16.470,348.89,2,-9.00,9,-9.00,0.05,10.58,17.70,21.86,231.79
AOML_Explorer,Ex0710E,64.156,05032007,3:44:37,26.041,-78.338,356.07,-9.00,1019.08,1015.60,24.41,24.45,36.501,1.598,105.102,32.141,1019.076,103.300,23.200,320.000,14.926,347.07,2,-9.00,9,-9.00,0.05,9.85,9.20,21.9,232.32
AOML_Explorer,Ex0710E,64.158,05032007,3:47:10,26.037,-78.320,356.24,-9.00,1019.17,1015.60,24.39,24.41,36.497,1.628,104.757,32.139,1019.172,103.600,23.000,328.000,16.470,347.08,2,-9.00,9,-9.00,0.05,9.30,25.27,21.86,232.23
AOML_Explorer,Ex0710E,64.160,05032007,3:49:43,26.033,-78.302,355.18,-9.00,1018.90,1015.50,24.31,24.44,36.491,1.606,104.690,32.134,1018.897,103.300,23.000,324.000,15.956,347.44,2,-9.00,9,-9.00,0.05,9.70,18.39,21.94,231.96
AOML_Explorer,Ex0710E,64.161,05032007,3:52:16,26.030,-78.285,354.37,-9.00,1018.89,1015.50,24.32,24.48,36.496,1.561,104.445,32.133,1018.886,103.100,23.000,325.000,15.956,347.04,2,-9.00,9,-9.00,0.05,9.49,19.45,21.89,232.22
AOML_Explorer,Ex0710E,64.163,05032007,3:54:49,26.026,-78.267,354.50,-9.00,1018.91,1015.60,24.35,24.46,36.493,1.607,103.792,32.126,1018.909,103.300,23.000,323.000,15.441,346.48,2,-9.00,9,-9.00,0.05,9.58,14.65,21.91,232.24
AOML_Explorer,Ex0710E,64.165,05032007,3:57:22,26.022,-78.250,354.81,-9.00,1018.81,1015.20,24.35,24.48,36.495,1.612,104.396,32.122,1018.806,103.200,23.100,323.000,16.470,346.94,2,-9.00,9,-9.00,0.05,10.30,18.79,21.89,232.45
AOML_Explorer,Ex0710E,64.167,05032007,3:59:55,26.018,-78.232,355.09,-9.00,1018.96,1015.60,24.35,24.46,36.492,1.592,104.683,32.117,1018.959,103.100,23.200,325.000,15.956,347.05,2,-9.00,9,-9.00,0.05,9.46,18.82,21.84,232.44
AOML_Explorer,Ex0710E,64.182,05032007,4:21:40,25.980,-78.081,360.16,-9.00,1018.34,1015.00,24.86,25.18,36.316,1.624,104.631,32.125,1018.341,107.900,23.900,325.000,16.470,354.34,2,-9.00,9,-9.00,0.05,9.69,24.16,21.97,230.78
AOML_Explorer,Ex0710E,64.183,05032007,4:24:13,25.975,-78.063,361.08,-9.00,1018.46,1014.80,24.91,25.27,36.306,1.630,104.608,32.119,1018.463,107.900,24.100,323.000,16.985,356.01,2,-9.00,9,-9.00,0.04,10.42,23.70,21.92,230.50
AOML_Explorer,Ex0710E,64.185,05032007,4:26:46,25.970,-78.045,361.91,-9.00,1018.53,1014.80,25.01,25.37,36.298,1.609,104.517,32.109,1018.526,107.800,24.300,323.000,15.441,356.68,2,-9.00,9,-9.00,0.05,9.39,16.20,22.03,230.32
AOML_Explorer,Ex0710E,64.187,05032007,4:29:19,25.965,-78.027,362.96,-9.00,1018.32,1015.00,25.09,25.36,36.306,1.593,104.457,32.106,1018.318,104.600,24.400,328.000,17.500,356.23,2,-9.00,9,-9.00,0.04,9.85,26.59,21.96,230.22
AOML_Explorer,Ex0710E,64.189,05032007,4:31:52,25.961,-78.008,364.31,-9.00,1018.44,1014.70,25.15,25.26,36.319,1.589,104.282,32.099,1018.437,102.000,24.600,327.000,17.500,355.29,2,-9.00,9,-9.00,0.05,10.01,22.39,21.91,230.51
AOML_Explorer,Ex0710E,64.191,05032007,4:34:25,25.957,-77.990,364.55,-9.00,1018.16,1014.70,25.12,25.18,36.346,1.622,104.173,32.092,1018.157,102.100,24.600,325.000,15.956,354.72,2,-9.00,9,-9.00,0.04,9.34,13.78,21.96,230.56
AOML_Explorer,Ex0710E,64.192,05032007,4:36:58,25.954,-77.971,364.18,-9.00,1018.50,1015.10,25.07,24.99,36.391,1.630,104.042,32.087,1018.503,97.700,24.500,331.000,17.500,352.61,2,-9.00,9,-9.00,0.05,9.02,24.53,21.91,230.93
AOML_Explorer,Ex0710E,64.194,05032007,4:39:31,25.952,-77.952,363.63,-9.00,1018.31,1014.90,24.98,25.04,36.351,1.604,104.592,32.082,1018.305,98.200,24.600,332.000,16.470,354.11,2,-9.00,9,-9.00,0.04,8.04,21.34,21.95,230.83
AOML_Explorer,Ex0710E,64.196,05032007,4:42:04,25.949,-77.933,362.57,-9.00,1018.24,1014.60,24.86,25.16,36.329,1.626,104.509,32.078,1018.239,100.500,24.500,323.000,16.470,356.39,2,-9.00,9,-9.00,0.05,9.96,13.57,21.91,230.63
AOML_Explorer,Ex0710E,64.198,05032007,4:44:37,25.945,-77.914,362.02,-9.00,1018.39,1014.80,24.91,25.31,36.291,1.591,104.475,32.075,1018.386,101.900,24.400,329.000,16.985,357.35,2,-9.00,9,-9.00,0.04,8.86,25.49,21.91,230.37
AOML_Explorer,Ex0710E,64.199,05032007,4:47:10,25.942,-77.896,362.36,-9.00,1018.24,1014.70,25.01,25.42,36.274,1.629,104.548,32.071,1018.239,102.400,24.300,319.000,15.441,357.86,2,-9.00,9,-9.00,0.04,10.09,8.01,21.92,230.12
AOML_Explorer,Ex0710E,64.201,05032007,4:49:43,25.938,-77.877,363.32,-9.00,1018.31,1014.80,25.13,25.46,36.273,1.590,104.756,32.067,1018.311,102.600,24.300,322.000,16.470,357.45,2,-9.00,9,-9.00,0.04,10.01,15.98,21.86,229.67
AOML_Explorer,Ex0710E,64.203,05032007,4:52:16,25.934,-77.858,364.34,-9.00,1018.32,1014.70,25.21,25.52,36.271,1.600,104.826,32.061,1018.323,102.500,24.300,325.000,16.985,358.09,2,-9.00,9,-9.00,0.04,9.73,21.34,21.89,229.70
AOML_Explorer,Ex0710E,64.205,05032007,4:54:49,25.930,-77.840,364.96,-9.00,1018.05,1014.80,25.26,25.52,36.287,1.607,104.519,32.061,1018.052,102.600,24.300,324.000,14.412,357.98,2,-9.00,9,-9.00,0.04,8.41,7.30,21.97,229.60
AOML_Explorer,Ex0710E,64.207,05032007,4:57:22,25.926,-77.821,365.44,-9.00,1017.95,1014.90,25.32,25.45,36.295,1.621,104.711,32.055,1017.950,103.000,24.200,322.000,14.926,356.44,2,-9.00,9,-9.00,0.05,9.20,8.76,21.89,229.21
AOML_Explorer,Ex0710E,64.208,05032007,4:59:55,25.923,-77.803,366.05,-9.00,1018.15,1015.40,25.30,25.42,36.303,1.610,104.705,32.053,1018.150,103.000,24.300,329.000,14.926,357.07,2,-9.00,9,-9.00,0.05,7.71,15.45,21.89,229.43
AOML_Explorer,Ex0710E,64.223,05032007,5:21:40,25.887,-77.647,364.96,-9.00,1018.19,1014.80,25.11,25.24,36.345,1.633,104.209,32.055,1018.193,105.700,24.100,324.000,15.441,356.20,2,-9.00,9,-9.00,0.08,9.49,14.34,21.98,229.35
AOML_Explorer,Ex0710E,64.225,05032007,5:24:13,25.882,-77.629,365.05,-9.00,1017.93,1014.90,25.08,25.20,36.351,1.634,104.245,32.050,1017.933,106.300,24.100,323.000,15.441,356.14,2,-9.00,9,-9.00,0.08,9.83,13.47,21.99,229.15
AOML_Explorer,Ex0710E,64.227,05032007,5:26:46,25.877,-77.611,364.93,-9.00,1018.08,1014.90,25.06,25.21,36.341,1.614,104.572,32.043,1018.081,106.900,24.100,327.000,15.441,356.54,2,-9.00,9,-9.00,0.08,9.03,17.66,21.93,229.10
AOML_Explorer,Ex0710E,64.229,05032007,5:29:19,25.872,-77.593,364.75,-9.00,1018.14,1015.00,25.02,25.25,36.347,1.639,104.482,32.032,1018.144,107.300,24.000,323.000,14.412,357.41,2,-9.00,9,-9.00,0.07,9.38,9.24,22,229.35
AOML_Explorer,Ex0710E,64.230,05032007,5:31:52,25.867,-77.575,364.52,-9.00,1018.08,1014.90,25.05,25.27,36.337,1.622,104.393,32.020,1018.078,107.800,23.900,319.000,13.897,357.04,2,-9.00,9,-9.00,0.07,10.08,3.84,22,229.35
AOML_Explorer,Ex0710E,64.232,05032007,5:34:25,25.862,-77.557,364.82,-9.00,1018.28,1015.00,25.08,25.27,36.338,1.623,104.553,32.009,1018.280,107.900,23.800,321.000,13.897,357.10,2,-9.00,9,-9.00,0.06,9.68,5.57,22.06,229.47
AOML_Explorer,Ex0710E,64.234,05032007,5:36:58,25.856,-77.540,365.06,-9.00,1018.10,1014.80,25.09,25.39,36.302,1.631,104.865,31.996,1018.101,107.900,23.400,323.000,14.412,358.68,2,-9.00,9,-9.00,0.04,9.51,10.93,22.09,229.87
AOML_Explorer,Ex0710E,64.236,05032007,5:39:31,25.851,-77.522,365.05,-9.00,1018.05,1014.70,25.10,25.36,36.334,1.592,104.290,31.989,1018.049,107.800,23.300,321.000,14.926,358.08,2,-9.00,9,-9.00,0.05,10.22,11.84,22.14,230.39
AOML_Explorer,Ex0710E,64.238,05032007,5:42:04,25.846,-77.505,365.16,-9.00,1017.95,1014.70,25.20,25.17,36.364,1.620,104.745,31.979,1017.955,107.000,23.200,323.000,14.926,353.89,2,-9.00,9,-9.00,0.04,9.58,14.10,22.06,230.65
AOML_Explorer,Ex0710E,64.239,05032007,5:44:37,25.842,-77.488,365.74,-9.00,1017.88,1014.70,25.13,25.31,36.437,1.624,104.355,31.967,1017.881,105.800,23.100,320.000,13.897,357.72,2,-9.00,9,-9.00,0.03,9.49,6.04,22.07,231.15
AOML_Explorer,Ex0710E,64.241,05032007,5:47:10,25.837,-77.470,364.28,-9.00,1017.89,1014.80,24.97,25.14,36.591,1.638,104.495,31.960,1017.887,106.100,22.900,328.000,14.926,356.12,2,-9.00,9,-9.00,0.03,8.27,20.65,22.12,231.71
AOML_Explorer,Ex0710E,64.243,05032007,5:49:43,25.833,-77.453,358.59,-9.00,1017.89,1014.90,25.08,25.13,36.549,1.610,105.000,31.951,1017.891,105.800,22.600,332.000,15.441,348.87,2,-9.00,9,-9.00,0.03,7.85,28.91,22.01,231.40
AOML_Explorer,Ex0710E,64.245,05032007,5:52:16,25.828,-77.436,354.08,-9.00,1017.83,1014.60,24.98,25.13,36.543,1.645,104.413,31.939,1017.829,106.000,22.700,328.000,15.956,345.76,2,-9.00,9,-9.00,0.03,9.06,25.79,21.91,231.21
AOML_Explorer,Ex0710E,64.246,05032007,5:54:49,25.824,-77.419,351.71,-9.00,1017.67,1014.70,24.97,25.14,36.533,1.598,104.699,31.930,1017.671,106.100,22.600,325.000,15.441,343.75,2,-9.00,9,-9.00,0.03,9.35,20.34,21.86,231.29
AOML_Explorer,Ex0710E,64.248,05032007,5:57:22,25.820,-77.402,350.87,-9.00,1017.71,1014.60,24.96,25.15,36.553,1.619,104.336,31.921,1017.712,105.900,22.600,324.000,15.441,343.24,2,-9.00,9,-9.00,0.03,9.51,19.17,21.88,231.51
AOML_Explorer,Ex0710E,64.250,05032007,5:59:55,25.815,-77.385,350.61,-9.00,1017.66,1014.60,24.98,25.16,36.555,1.620,104.755,31.911,1017.659,106.300,22.600,329.000,15.441,342.87,2,-9.00,9,-9.00,0.03,8.56,24.94,21.86,231.73
AOML_Explorer,Ex0710E,64.265,05032007,6:21:40,25.781,-77.240,349.51,-9.00,1017.44,1014.00,24.90,25.06,36.578,1.615,104.881,31.907,1017.436,96.200,22.400,318.000,15.441,341.42,2,-9.00,9,-9.00,0.03,10.75,3.87,21.65,231.62
AOML_Explorer,Ex0710E,64.267,05032007,6:24:13,25.780,-77.222,349.71,-9.00,1017.55,1014.30,24.90,25.06,36.616,1.622,104.665,31.903,1017.552,96.400,22.400,317.000,14.412,341.67,2,-9.00,9,-9.00,0.03,10.18,359.32,21.55,231.72
AOML_Explorer,Ex0710E,64.269,05032007,6:26:46,25.777,-77.205,350.33,-9.00,1017.51,1014.30,24.94,25.01,36.594,1.622,104.583,31.901,1017.514,98.400,22.400,314.000,14.412,341.03,2,-9.00,9,-9.00,0.03,10.92,358.22,21.52,231.52
AOML_Explorer,Ex0710E,64.270,05032007,6:29:19,25.775,-77.188,351.71,-9.00,1017.52,1014.40,24.88,25.01,36.592,1.626,104.564,31.893,1017.520,98.000,22.500,318.000,13.897,343.15,2,-9.00,9,-9.00,0.03,9.73,358.88,21.5,231.56
AOML_Explorer,Ex0710E,64.272,05032007,6:31:52,25.773,-77.170,351.08,-9.00,1017.50,1014.20,24.85,24.99,36.602,1.607,104.612,31.886,1017.498,97.900,22.300,317.000,14.412,342.80,2,-9.00,9,-9.00,0.03,10.23,0.89,21.66,231.73
AOML_Explorer,Ex0710E,64.274,05032007,6:34:25,25.771,-77.153,350.81,-9.00,1017.47,1014.20,24.85,25.00,36.590,1.601,104.746,31.880,1017.470,98.000,22.300,319.000,13.897,342.57,2,-9.00,9,-9.00,0.03,9.59,0.00,21.94,231.79
AOML_Explorer,Ex0710E,64.276,05032007,6:36:58,25.769,-77.136,350.46,-9.00,1017.47,1014.40,24.83,25.00,36.594,1.605,104.436,31.870,1017.473,98.000,22.300,317.000,14.926,342.41,2,-9.00,9,-9.00,0.03,10.58,3.31,22.09,231.70
AOML_Explorer,Ex0710E,64.277,05032007,6:39:31,25.766,-77.119,350.02,-9.00,1017.39,1014.10,24.84,25.00,36.586,1.611,104.465,31.864,1017.388,98.600,22.200,321.000,16.470,341.87,2,-9.00,9,-9.00,0.03,10.91,13.60,22.17,231.66
AOML_Explorer,Ex0710E,64.279,05032007,6:42:04,25.764,-77.102,350.05,-9.00,1017.66,1014.40,24.84,25.03,36.587,1.607,104.042,31.854,1017.659,98.300,22.100,318.000,14.926,342.42,2,-9.00,9,-9.00,0.03,10.41,4.80,22.08,231.71
AOML_Explorer,Ex0710E,64.281,05032007,6:44:37,25.762,-77.084,349.57,-9.00,1017.45,1014.40,24.85,25.06,36.587,1.622,104.289,31.847,1017.450,98.300,22.000,320.000,14.412,342.18,2,-9.00,9,-9.00,0.03,9.73,4.46,22.08,232.01